Starlink 32704

operational
NORAD ID: 62826 Int'l Des: 2025-018 Owner: SPXS Country: US Constellation: starlink
LEOCIRCULAR

Starlink 32704について

説明を読み込み中...

リアルタイム位置

3D地球を読み込み中...

次回通過

高度履歴

Altitude vs Time

uPlot chart will show altitude changes over time

軌道要素

1 62826U 25018W 25257.70027149 .00032363 00000-0 11000-2 0 9992
2 62826 53.1598 47.0670 0000928 68.4215 291.6885 15.30202077 36225
Epoch: Sep 14, 2025 • Age: 21 hours

現在のステータス

高度 475.2 km
速度 7.63 km/s
衛星直下点 11.05°N, 11.23°E
打ち上げ日 Jan 24, 2025
運用期間 0.6 years
タイプ internet

技術仕様

分類 Payload
質量 730.00 kg
乾燥質量 700.00 kg
総質量 730.00 kg
長さ 0.30 m
直径 4.10 m
スパン 29.00 m
形状 Box + pan
製造者 SPXS
バスタイプ Starlink V2M
フェーズステータス In Orbit
所有者/国 SPXS/US

大規模コンステレーション

Loading constellations...